SATLLA-1

Last updated on Thu Dec 03 2020 06:15:12 GMT+0000 (Coordinated Universal Time)

1 46927U 98067RX 20337.94306545 .00015381 00000-0 27139-3 0 9992 2 46927 51.6460 233.2379 0003783 113.2515 246.9102 15.50575105 4260

Satellite not in orbit

SATLLA-1